Flag for Germany Weather past 2 weeks in Cloppenburg, Lower Saxony, Germany

Now
73 °F

Mild.


Feels Like: 77 °F
Forecast: 58 / 74 °F
Wind: 3 mph from Northeast

Location: Meppen-Mil

Current Time: Sep 18, 2014 at 8:04:28 PM

Latest Report: Sep 18, 2014 at 7:20 PM


Visibility: 5 mi

Pressure: 29.86 "Hg

Humidity: 57%

Dew point: 57 °F

Location of CloppenburgLocation

Historic Weather in Cloppenburg — Graph

°F

Cloppenburg temperature yesterday

Maximum temperature yesterday: 75 °F (at 1:20 PM)
Minimum temperature yesterday: 57 °F (at 7:20 AM)
Average temperature yesterday: 66 °F

Past Weeks' High & Low Weather Summary

 TemperatureHumidityPressure
High79 °F (Sep 18, 4:20 PM)100% (Sep 8, 7:20 AM)30.27 "Hg (Sep 8, 7:20 AM)
Low48 °F (Sep 15, 4:20 AM)45% (Sep 18, 4:20 PM)29.83 "Hg (Sep 18, 4:20 PM)
Average62 °F79%30.06 "Hg
* Reported Sep 3 6:20 PM — Sep 18 6:20 PM, Cloppenburg, Weather by CustomWeather, © 2014

Note: Actual official high and low records may vary slightly from our data, if they occured in-between our weather recording intervals... More about our weather records

Advertising

Cloppenburg weather history for previous 24 hours

 ConditionsComfort  
Time TempWeatherWind HumidityBarometerVisibility
6:20 PM
Sep 18
77 °FWarm.3 mph51%29.83 "Hg4 mi
5:20 PM77 °FWarm.3 mph47%29.86 "Hg4 mi
4:20 PM79 °FWarm.6 mph45%29.83 "Hg4 mi
3:20 PM77 °FWarm.3 mph47%29.86 "Hg4 mi
2:20 PM77 °FPassing clouds.6 mph47%29.86 "HgN/A
1:20 PM75 °FPassing clouds.7 mph54%29.86 "HgN/A
12:20 PM73 °FPassing clouds.6 mph57%29.86 "HgN/A
11:20 AM70 °FPassing clouds.5 mph64%29.89 "HgN/A
10:20 AM66 °FMild.5 mph73%29.89 "HgN/A
9:20 AM61 °FPassing clouds.3 mph83%29.89 "Hg5 mi
8:20 AM57 °FPassing clouds.2 mph88%29.89 "Hg4 mi
7:20 AM55 °FFog.2 mph88%29.89 "Hg3 mi
6:20 AM55 °FCool.2 mph94%29.89 "Hg1 mi
5:20 AM55 °FCool.3 mph94%29.89 "Hg1 mi
4:20 AM57 °FCool.3 mph88%29.89 "Hg2 mi
3:20 AM57 °FCool.5 mph88%29.89 "Hg3 mi
2:20 AM59 °FCool.2 mph82%29.89 "Hg4 mi
1:20 AM59 °FCool.5 mph82%29.89 "Hg4 mi
12:20 AM61 °FCool.5 mph83%29.89 "Hg4 mi
11:20 PM
Sep 17
63 °FMild.5 mph77%29.92 "Hg4 mi
10:20 PM64 °FMild.5 mph73%29.92 "Hg5 mi
9:20 PM66 °FMild.5 mph68%29.92 "Hg5 mi
8:20 PM68 °FMild.5 mph64%29.92 "Hg4 mi
Weather by CustomWeather, © 2014

See weather overviewHow to use our weather pages